Location: Larrial
(48.2758°N, 4.5331°W)
Time: 18:36:12
(UTC+00:00)

STARLINK-1269 - Pass Details

Date: 09 April 2020
Orbit: 549 x 550 km, 53.0° (Epoch: 25 May)

Event Time Altitude Azimuth Distance (km) Brightness Sun altitude
Rises 21:05:00 0° 296° (WNW) 2,732 8.7 -19.4°
Reaches altitude 10° 21:07:15 10° 293° (WNW) 1,836 7.4 -19.7°
Maximum altitude 21:11:23 65° 212° (SSW) 610 3.7 -20.2°
Enters shadow 21:12:01 55° 165° (SSE) 665 3.7 -20.3°
